{"data":{"norad_id":59850,"epoch":"2026-05-24T10:43:17.485824Z","epoch_age_seconds":120078,"freshness":"FRESH","line1":"1 59850U 24097R   26144.44673016  .00000317  00000+0  21044-4 0  9992","line2":"2 59850  43.0003 206.4554 0001465 264.3509  95.7176 15.27579424113501","mean_motion":15.27579424,"eccentricity":0.0001465,"inclination_deg":43.0003,"raan_deg":206.4554,"arg_perigee_deg":264.3509,"mean_anomaly_deg":95.7176,"bstar":2.1044e-5,"rev_number":11350,"period_min":94.266784258545,"perigee_km":482.04565677566,"apogee_km":484.05598480716,"semimajor_km":6861.1878207914,"source":"CELESTRAK","updated_at":"2026-05-25T13:38:19.088390Z"}}